Location: Bremen
(53.0793°N, 8.8017°E)
Time: 11:28:19
(UTC+02:00)

Altair - Pass Details

Date: 21 April 2024
Orbit: 1501 x 1682 km, 47.2° (Epoch: 17 May)

Event Time Altitude Azimuth Distance (km) Brightness Sun altitude
Rises 19:02:35 0° 204° (SSW) 4,920 10.4 12.8°
Reaches altitude 10° 19:06:17 10° 194° (SSW) 3,925 9.8 12.3°
Maximum altitude 19:14:27 29° 139° (SE) 2,666 8.5 11.1°
Drops below altitude 10° 19:22:27 10° 85° (E) 3,847 9.0 9.9°
Sets 19:26:01 0° 75° (ENE) 4,807 9.5 9.3°
